sat.trackr.live / text

‹ back to catalog

STARLINK-4215

NORAD 53007 · 2022-076X

PAYLOAD ACTIVE UNKNOWN

§ Identity

Operator
Country
US
Launch date
2022-07-07
Launch site
AFETR
Launch vehicle
Mass (kg)
RCS (m²)

Purposes: comms

External: N2YO · Heavens-Above · Gunter

§ Orbital elements

Epoch: 2026-05-25T03:50:12.583104Z

Period
95.44 min
Inclination
53.2160°
Eccentricity
0.0001445
Mean motion
15.08842667 rev/d
Perigee alt
538.7 km
Apogee alt
540.7 km
Semi-major
6,917.9 km
B*
7.8980e-6
RAAN
110.8348°
Arg perigee
91.5585°
Mean anomaly
268.5573°
Rev number
21,439

§ Raw data

STARLINK-42151 53007U 22076X   26145.15986786 -.00000162  00000+0  78980-5 0  99962 53007  53.2160 110.8348 0001445  91.5585 268.5573 15.08842667214398

JSON: /api/v1/satellites/53007 · /tle

For live sub-satellite position, see the globe view (requires WebGL).

§ Visibility from observer

Set your observer location to see the next 7 days of passes ≥ 10°. The values pass through the URL so the page stays shareable.

No JS? Fill the form by hand. The geolocation button needs JavaScript.